Retour au catalogue

XM-8

ActifCommunicationsGEO
NORAD 48838·PAYLOAD·🇺🇸 United States

Lancé Jun 6, 2021 depuis Cape Canaveral Space Force Station

Loading…

TLE

FraisSource: Space-Track

Époque: Sep 14, 2026, 21:57 UTC

1 48838U 21049A   26257.91463405 -.00000213  00000-0  00000-0 0  9998
2 48838   0.0334  62.0927 0005791 333.1276 202.7929  1.00273750 19484

Suivez XM-8 en temps réel avec AllMySat

Download on the App Store